Wind_Speed
45 45 44 36 30 32 35 32 28 24 28 28 21 20 17 17 16 15 16 16 12 9 10 13 6 3 5 3 2 5 5 9 11 14 15 15 14 13 12 13 14 15 16 19
48 50 40 35 33 37 35 32 31 29 29 28 23 22 21 18 20 19 21 17 10 7 10 13 9 2 4 6 5 5 7 9 13 15 18 15 17 15 16 15 15 15 16 17
34 34 37 34 34 36 35 36 33 29 29 30 25 25 23 22 22 23 21 14 6 5 5 6 4 5 6 7 6 5 6 7 10 13 17 21 25 14 18 16 14 13 15 18
36 36 34 31 32 32 37 35 32 30 31 31 28 26 24 25 23 22 19 9 11 8 8 4 1 3 6 6 6 6 7 8 11 15 17 18 16 17 17 18 15 14 15 20
37 36 32 33 31 32 32 31 33 33 35 32 30 28 22 25 20 19 17 10 5 11 11 6 2 2 4 6 6 7 6 7 10 12 15 14 16 21 15 17 16 15 17 20
40 36 34 31 29 34 35 35 37 37 36 35 28 28 21 18 19 13 12 8 11 9 10 8 4 3 4 6 7 9 8 8 10 11 13 12 19 24 15 15 18 20 19 19
45 42 39 38 38 41 41 37 40 40 37 28 28 26 20 15 14 12 12 11 10 13 11 9 7 7 7 7 9 9 9 9 10 12 13 13 6 20 14 16 20 22 21 17
43 46 43 41 40 39 38 39 41 36 29 29 29 24 21 17 17 16 14 13 10 11 11 11 11 11 10 11 10 11 10 10 11 12 11 10 9 10 13 16 21 24 24 19
44 45 40 41 38 37 40 42 38 37 34 33 30 21 22 19 18 17 16 16 15 15 14 12 11 13 14 14 13 11 11 10 9 11 13 13 10 10 14 17 21 25 27 23
42 41 40 39 41 41 43 39 40 40 37 32 27 23 24 20 19 19 19 20 20 19 16 13 13 15 17 16 15 14 12 13 13 13 13 14 15 14 16 18 22 27 29 28
44 42 41 40 46 43 43 43 40 39 38 31 27 25 22 21 23 23 22 23 22 22 21 16 15 15 16 17 18 16 15 16 17 16 15 15 15 19 20 22 23 26 29 29
47 44 44 40 38 42 42 42 39 37 33 29 28 28 19 19 22 23 25 25 24 23 22 21 17 15 17 15 18 18 18 20 22 20 20 19 18 20 21 24 27 28 30 31
50 52 47 44 47 45 46 44 38 37 36 35 31 27 25 24 25 25 24 25 25 23 22 20 21 20 19 21 18 20 21 24 25 23 24 24 24 23 24 26 28 31 32 31
48 51 53 47 42 44 44 41 39 38 39 34 33 30 27 24 28 30 31 28 25 21 22 24 24 25 23 22 22 22 22 24 26 26 26 27 27 27 26 26 28 30 31 31
51 52 52 51 48 43 39 40 40 39 37 39 34 33 29 27 30 31 32 30 27 26 25 26 26 26 26 24 26 27 29 28 29 29 30 31 29 30 29 30 30 30 33 34
49 51 47 51 48 50 50 47 45 44 43 42 40 37 33 32 32 32 32 31 33 32 29 29 28 28 27 29 29 30 32 33 32 31 32 33 32 31 31 32 34 35 34 34
56 50 50 49 44 46 51 50 49 47 46 43 42 37 37 36 35 35 35 36 35 35 33 29 28 28 28 30 31 31 33 35 36 35 32 33 35 35 34 35 36 35 35 34
56 58 53 50 44 47 50 45 44 44 44 43 42 39 38 39 39 39 38 37 37 37 37 35 33 33 31 32 33 34 35 36 39 40 35 33 35 35 35 38 37 35 35 34
49 55 56 55 53 50 52 49 45 44 43 41 41 41 40 40 39 39 40 42 43 42 40 38 38 37 36 35 35 36 38 40 41 42 43 36 36 37 38 37 37 36 34 35
56 51 54 54 55 55 54 51 47 44 47 45 41 39 38 38 39 39 41 43 42 41 42 41 41 41 40 40 40 40 40 41 43 44 44 44 41 39 39 38 38 37 34 35
56 56 55 56 56 56 57 53 48 48 50 43 41 40 39 39 39 40 42 44 45 46 46 45 44 44 44 43 43 43 43 43 44 46 46 46 47 43 40 41 42 42 42 39
65 57 56 57 57 58 56 55 54 51 47 44 41 42 42 43 44 45 46 47 49 50 50 51 50 49 49 49 48 47 46 46 46 47 47 48 48 48 46 46 49 47 40 41
63 68 61 62 61 58 54 53 52 50 50 48 45 45 46 48 49 49 49 51 52 52 51 50 50 50 49 50 50 50 50 50 49 49 49 49 50 51 52 53 52 51 52 49
54 57 64 67 63 62 60 57 56 52 50 52 46 45 42 49 53 53 55 52 50 49 49 50 51 53 53 54 54 54 53 53 52 51 51 51 52 53 53 53 53 52 49 47
49 50 53 55 60 61 64 64 63 62 62 59 58 59 60 61 61 59 53 52 54 56 55 54 54 55 55 54 53 52 52 52 51 50 49 50 50 51 51 52 52 51 51 48
44 43 44 42 44 49 51 51 51 47 48 49 43 42 50 49 52 55 59 57 56 55 55 55 55 54 53 53 53 53 53 53 53 53 53 54 55 55 55 52 50 49 48 48
Wind_Direction
240 246 249 249 246 250 255 259 259 258 258 260 263 264 264 275 266 286 285 277 271 254 274 287 323 316 280 285 16 3 301 296 297 294 297 288 291 289 286 286 283 287 297 295
236 242 247 242 239 243 249 254 254 253 255 259 258 258 262 263 260 274 281 285 276 231 269 276 296 335 328 316 307 323 318 308 283 280 279 273 279 290 292 289 285 290 295 296
237 242 244 243 240 241 244 249 250 252 254 258 256 260 262 269 267 271 272 280 220 220 275 277 284 311 338 344 338 312 296 307 307 314 323 306 296 282 289 288 281 289 294 299
229 232 236 233 232 236 239 244 246 248 249 253 257 261 258 262 263 261 260 242 191 225 276 266 300 333 338 325 325 325 312 321 315 303 308 303 311 283 283 288 286 288 299 297
236 233 232 227 226 236 241 243 244 243 248 251 255 260 257 260 259 246 236 216 202 215 249 263 286 335 323 306 296 297 313 322 307 303 314 314 311 285 270 279 278 281 297 305
234 230 228 224 224 230 234 234 242 245 248 251 252 255 250 257 242 233 232 198 190 211 241 255 271 271 283 295 295 292 297 311 306 312 318 304 292 305 265 269 275 289 299 303
233 231 227 222 220 223 229 229 238 242 245 250 251 255 252 224 228 220 224 222 215 215 242 257 267 275 278 282 292 294 303 304 311 317 317 321 286 283 260 269 279 290 295 307
236 235 231 230 226 228 232 233 240 245 249 253 254 251 243 223 226 222 231 241 242 229 240 250 264 278 280 286 287 296 305 308 310 317 312 311 299 273 265 265 282 290 297 301
234 235 231 233 232 231 233 234 239 243 245 248 250 238 237 230 225 233 239 245 246 245 238 246 260 271 276 280 285 292 299 291 298 307 309 312 301 295 290 283 294 290 295 298
236 236 233 232 232 231 234 240 238 240 241 242 246 237 236 239 241 242 244 247 250 256 255 251 245 260 274 278 279 283 293 291 296 305 297 298 304 294 300 293 289 289 292 294
235 230 227 224 229 229 233 233 233 234 235 235 241 237 233 239 250 252 247 251 251 254 260 258 259 260 268 274 277 277 277 283 288 291 286 284 286 285 289 294 288 285 288 291
234 231 230 225 228 231 232 234 238 241 241 241 244 247 245 239 243 255 258 255 257 259 266 272 272 265 266 261 273 277 277 275 278 285 289 286 283 281 280 283 286 285 285 288
229 229 227 224 222 223 225 231 233 232 236 238 241 243 244 247 259 261 261 257 259 264 264 269 273 268 263 262 266 273 274 274 275 278 280 281 283 280 278 277 281 282 281 285
230 230 232 230 230 230 230 230 233 236 240 247 250 251 250 246 253 263 266 263 258 257 260 265 267 271 272 275 275 270 273 275 275 274 278 279 279 277 277 274 278 281 281 282
233 231 230 227 226 230 233 237 243 244 250 251 258 257 254 245 246 252 257 261 266 267 263 262 268 272 278 278 275 274 275 272 276 283 287 284 281 280 279 279 278 279 282 283
230 230 228 229 229 230 229 230 233 237 238 244 247 247 249 247 248 251 257 258 259 265 268 267 268 272 273 272 271 273 277 281 284 285 281 283 286 282 282 284 284 283 285 285
227 230 228 229 230 231 233 231 234 239 243 246 248 252 251 250 254 254 255 258 262 268 268 269 270 268 266 266 266 268 272 277 281 283 284 284 284 285 286 285 286 288 289 289
225 226 230 230 229 231 228 232 237 241 243 245 248 249 252 257 260 261 262 265 268 269 273 275 274 273 269 265 265 265 268 273 278 283 283 280 280 282 283 286 284 285 286 288
222 223 226 230 234 234 234 230 232 238 243 245 248 250 252 256 261 265 266 268 269 270 270 271 273 275 274 271 270 269 269 272 275 277 281 280 279 281 282 281 280 283 287 285
217 220 224 227 231 234 236 237 232 232 238 240 242 245 248 250 254 258 260 261 265 268 271 274 275 276 275 273 272 272 273 275 277 277 277 279 278 277 277 280 280 273 284 285
219 222 224 226 228 231 234 236 239 237 237 245 248 250 251 254 254 254 256 260 264 268 272 275 275 273 272 271 271 271 271 273 275 274 274 274 276 278 273 273 273 275 283 287
220 220 226 230 232 234 235 240 242 247 247 245 246 247 251 254 256 258 260 263 265 267 270 271 272 272 272 274 274 274 275 275 274 272 271 271 273 274 278 275 269 274 278 280
224 226 228 231 234 237 239 243 247 252 253 255 253 252 254 257 260 264 268 269 270 272 273 272 272 273 274 275 276 276 276 275 274 273 271 271 271 271 269 266 269 272 281 284
228 229 231 231 234 238 239 241 244 240 248 255 250 255 253 258 262 266 266 266 266 270 271 272 273 274 275 275 276 277 277 277 275 274 274 273 273 273 274 275 275 278 280 280
233 233 234 237 236 240 244 247 250 250 252 254 256 258 258 261 264 268 259 261 269 273 273 272 272 272 273 273 274 276 277 277 275 275 276 275 274 275 276 276 276 277 280 279
231 235 236 240 239 240 244 247 250 253 253 258 254 253 262 255 265 253 266 271 272 271 271 271 271 271 272 274 275 275 275 274 274 274 275 275 275 276 275 274 275 276 275 267
Height
5817 5818 5821 5830 5833 5832 5832 5834 5837 5841 5840 5839 5842 5843 5844 5845 5845 5844 5844 5844 5843 5840 5839 5836 5834 5832 5831 5830 5829 5828 5828 5828 5829 5829 5830 5829 5828 5826 5826 5825 5824 5823 5822 5821
5809 5811 5820 5822 5825 5825 5827 5829 5832 5835 5834 5835 5837 5838 5839 5841 5841 5841 5840 5840 5839 5838 5836 5834 5832 5831 5829 5828 5826 5825 5824 5824 5825 5825 5824 5824 5824 5823 5822 5821 5821 5820 5819 5818
5802 5809 5809 5814 5817 5819 5821 5823 5826 5829 5828 5828 5831 5832 5834 5836 5836 5836 5836 5836 5836 5835 5834 5832 5830 5829 5827 5826 5825 5823 5822 5821 5821 5821 5820 5820 5819 5819 5819 5818 5818 5817 5816 5815
5794 5797 5802 5805 5809 5812 5814 5819 5820 5821 5822 5823 5825 5827 5828 5829 5831 5832 5832 5833 5833 5832 5831 5830 5829 5827 5825 5825 5824 5821 5820 5819 5818 5818 5817 5816 5816 5816 5815 5814 5813 5813 5813 5812
5789 5791 5795 5797 5804 5806 5810 5812 5813 5814 5814 5817 5819 5821 5824 5824 5826 5826 5826 5829 5829 5828 5829 5828 5827 5826 5825 5824 5823 5820 5818 5818 5816 5815 5814 5812 5811 5811 5811 5810 5810 5809 5808 5807
5778 5782 5785 5792 5797 5798 5802 5804 5805 5806 5808 5809 5814 5815 5817 5819 5819 5821 5822 5825 5825 5825 5825 5825 5825 5824 5823 5822 5821 5819 5817 5816 5815 5812 5810 5808 5808 5807 5807 5807 5806 5805 5804 5803
5768 5772 5778 5781 5784 5787 5791 5796 5796 5798 5801 5805 5806 5808 5811 5814 5815 5816 5818 5820 5821 5822 5822 5822 5822 5822 5821 5820 5819 5817 5815 5813 5812 5811 5807 5805 5803 5803 5803 5803 5802 5800 5800 5800
5759 5762 5768 5773 5778 5782 5786 5788 5789 5791 5796 5799 5799 5801 5805 5808 5810 5812 5813 5815 5817 5818 5819 5819 5819 5818 5818 5817 5816 5815 5813 5811 5809 5807 5805 5803 5801 5800 5800 5799 5797 5796 5795 5794
5751 5754 5761 5765 5772 5776 5777 5777 5785 5787 5789 5791 5792 5797 5799 5802 5805 5807 5808 5810 5812 5813 5815 5815 5814 5813 5814 5813 5812 5811 5810 5808 5807 5804 5802 5799 5798 5798 5797 5796 5794 5792 5790 5789
5742 5747 5753 5758 5761 5764 5766 5774 5776 5776 5780 5783 5786 5790 5793 5797 5799 5801 5803 5804 5806 5807 5808 5810 5810 5809 5809 5808 5807 5806 5804 5803 5802 5800 5798 5796 5794 5794 5793 5792 5791 5788 5786 5785
5732 5737 5742 5746 5747 5754 5758 5761 5765 5769 5772 5777 5781 5783 5788 5791 5792 5794 5796 5798 5799 5800 5801 5802 5804 5804 5803 5802 5801 5801 5799 5798 5795 5794 5793 5792 5791 5789 5788 5786 5786 5784 5781 5779
5724 5727 5730 5738 5742 5746 5749 5753 5758 5761 5767 5771 5774 5777 5783 5785 5786 5787 5789 5791 5793 5794 5795 5796 5797 5797 5796 5795 5794 5794 5793 5791 5789 5788 5787 5785 5785 5783 5783 5781 5779 5776 5774 5772
5710 5713 5719 5725 5730 5732 5735 5742 5750 5754 5758 5760 5766 5772 5776 5778 5778 5780 5782 5784 5787 5788 5789 5789 5788 5789 5788 5787 5787 5786 5785 5783 5782 5781 5781 5780 5778 5777 5775 5774 5772 5769 5768 5767
5696 5703 5709 5717 5725 5728 5731 5736 5741 5746 5748 5754 5757 5764 5769 5772 5772 5771 5773 5776 5779 5781 5781 5781 5780 5779 5780 5780 5779 5779 5777 5775 5774 5774 5774 5773 5772 5769 5768 5766 5765 5762 5760 5759
5683 5691 5698 5707 5713 5718 5724 5730 5733 5736 5742 5744 5751 5754 5759 5763 5765 5765 5766 5768 5770 5771 5772 5772 5772 5772 5772 5772 5771 5770 5768 5767 5766 5766 5765 5763 5763 5761 5760 5758 5757 5755 5753 5752
5671 5681 5688 5693 5702 5706 5711 5716 5720 5725 5730 5733 5737 5743 5748 5751 5754 5757 5759 5760 5761 5762 5763 5764 5764 5765 5764 5764 5763 5761 5760 5758 5758 5758 5757 5755 5753 5752 5751 5750 5748 5747 5746 5744
5662 5668 5676 5682 5690 5695 5694 5704 5710 5716 5719 5726 5728 5736 5738 5741 5744 5747 5750 5750 5752 5752 5754 5754 5756 5756 5756 5755 5754 5753 5752 5750 5749 5749 5749 5747 5744 5743 5742 5741 5739 5738 5736 5735
5649 5658 5664 5670 5677 5677 5690 5696 5702 5706 5711 5715 5720 5724 5728 5730 5734 5736 5739 5741 5742 5742 5742 5743 5744 5745 5746 5746 5745 5745 5743 5741 5739 5738 5740 5739 5737 5735 5733 5731 5730 5728 5727 5726
5637 5645 5651 5657 5662 5671 5677 5687 5693 5696 5702 5707 5711 5714 5718 5722 5724 5726 5727 5729 5730 5731 5732 5733 5733 5734 5733 5734 5734 5734 5732 5731 5730 5728 5726 5728 5727 5724 5723 5721 5720 5719 5718 5716
5625 5633 5640 5646 5652 5657 5669 5674 5683 5689 5690 5695 5701 5705 5709 5711 5713 5716 5716 5716 5717 5719 5720 5721 5722 5722 5722 5722 5722 5721 5721 5720 5718 5717 5716 5715 5715 5714 5712 5711 5710 5709 5708 5706
5613 5621 5628 5635 5641 5647 5655 5662 5668 5674 5686 5687 5691 5695 5698 5700 5703 5703 5704 5705 5706 5707 5707 5708 5708 5708 5708 5708 5709 5709 5709 5708 5707 5705 5704 5703 5702 5702 5701 5700 5699 5697 5696 5695
5604 5611 5619 5626 5631 5638 5648 5652 5658 5666 5668 5675 5680 5683 5684 5687 5689 5691 5692 5693 5694 5694 5694 5694 5694 5694 5695 5695 5695 5695 5695 5695 5694 5692 5691 5691 5690 5689 5688 5686 5686 5685 5684 5683
5593 5601 5611 5617 5622 5630 5637 5642 5648 5654 5658 5661 5666 5670 5672 5674 5675 5677 5679 5680 5679 5678 5679 5679 5680 5680 5680 5681 5681 5681 5680 5679 5679 5678 5677 5677 5676 5675 5674 5673 5672 5671 5670 5671
5583 5591 5598 5606 5612 5618 5624 5630 5635 5641 5644 5649 5653 5656 5658 5661 5662 5664 5663 5664 5664 5665 5666 5666 5666 5666 5666 5666 5666 5665 5664 5664 5664 5663 5663 5662 5661 5659 5659 5659 5659 5658 5658 5658
5573 5582 5587 5595 5603 5609 5614 5618 5622 5628 5632 5635 5638 5641 5643 5644 5646 5648 5649 5650 5651 5652 5652 5652 5652 5652 5651 5651 5651 5650 5649 5649 5648 5648 5648 5647 5646 5645 5645 5645 5645 5644 5644 5644
5563 5571 5580 5588 5593 5597 5601 5606 5610 5615 5618 5621 5624 5625 5628 5630 5632 5634 5635 5636 5637 5637 5637 5637 5636 5636 5636 5635 5635 5634 5634 5634 5634 5633 5633 5632 5631 5630 5629 5629 5630 5630 5630 5629